#timestamp,LO_Frequency,Hit,StdDev 
1650376815.4,286046999.0,N
1650376835.3,286047002.7,N
1650376855.1,286046999.7,N
1650376875.8,286047000.1,N
1650376895.7,286047000.8,N
1650376915.5,286047000.9,N
1650376935.4,286047000.1,N
1650376955.2,286047000.3,N
1650376975.0,286047002.8,N
1650376975.9,286047002.8,N
1650376995.8,286047002.3,N
1650377015.6,286047002.2,N
1650377035.4,286047003.8,N
1650377055.3,286047001.6,N
1650377075.1,286047002.2,N
1650377095.9,286047003.2,N
1650377115.7,286047004.2,N
1650377135.5,286047002.5,N
1650377155.4,286047003.9,N
1650377175.2,286047004.2,N
1650377195.0,286047003.6,N
1650377196.0,286047003.6,N
1650377215.8,286047003.2,N
1650377235.6,286047003.0,N
1650377255.5,286047004.0,N
1650377275.3,286046999.7,N
1650377295.1,286047000.5,N
1650377315.9,286047001.7,N
1650377335.7,286047001.8,N
1650377355.6,286047003.9,N
1650377375.4,286047001.3,N
1650377395.2,286047000.2,N
1650377415.1,286047001.0,N
1650377416.0,286047001.0,N
1650377435.8,286047000.5,N
1650377455.6,286047002.3,N
1650377475.5,286047004.1,N
1650377495.3,286047003.4,N
1650377515.2,286047004.4,Y
1650377535.9,286047001.0,P
1650377555.7,286047001.2,N
1650377575.6,286046999.5,N
1650377595.4,286047001.0,N
1650377615.3,286047000.8,N
1650377635.1,286046998.5,N
1650377636.0,286046998.5,N
1650377655.8,286046996.5,N
1650377675.7,286046998.7,N
1650377695.5,286046998.8,N
1650377715.3,286047002.4,N
1650377735.2,286047000.7,N
1650377755.0,286047000.7,N
1650377755.9,286047000.7,N
1650377775.8,286046998.2,N
1650377795.6,286047001.2,N
1650377815.5,286047000.3,N
1650377835.3,286046998.3,N
1650377855.1,286046998.3,N
1650377875.9,286047000.8,N
1650377895.7,286047001.2,N
1650377915.5,286046998.4,N
1650377935.4,286046999.3,N
1650377955.2,286046997.8,N
1650377975.1,286046995.3,Y
1650377976.0,286046995.3,P
1650377995.8,286046999.0,N
1650378015.6,286046998.6,N
1650378035.5,286047000.8,N
1650378055.3,286047000.7,N
1650378075.1,286046998.5,N
1650378095.9,286046998.8,N
1650378115.7,286046998.7,N
1650378135.6,286046998.4,N
1650378155.4,286046996.7,N
1650378175.2,286046999.2,N
1650378195.1,286047000.6,N
1650378196.0,286047000.6,N
1650378215.8,286047000.5,N
1650378235.6,286047001.0,N
1650378255.5,286047000.9,N
1650378275.3,286047000.2,N
1650378295.2,286046998.5,N
1650378315.9,286047001.1,N
1650378335.7,286047001.0,N
1650378355.6,286046999.8,N
1650378375.4,286047002.7,N
1650378395.2,286046999.6,N
1650378415.1,286046999.5,N
1650378416.0,286046999.5,N
1650378435.8,286046996.8,N
1650378455.7,286046998.6,N
1650378475.5,286046998.2,N
1650378495.3,286047001.2,N
1650378515.2,286047002.7,N
1650378535.0,286047002.5,N
1650378535.9,286047002.5,N
1650378555.8,286046999.7,N
1650378575.6,286046998.1,N
1650378595.4,286046998.5,N
1650378615.3,286046999.2,N
1650378635.1,286046997.1,N
1650378655.8,286046998.1,N
1650378675.7,286046999.6,N
1650378695.5,286046996.5,N
1650378715.4,286046997.0,N
1650378735.2,286046999.5,N
1650378755.0,286047000.4,N
1650378755.9,286047000.4,N
1650378775.8,286047000.8,N
1650378795.6,286046998.8,N
1650378815.5,286046999.0,N
1650378835.3,286046998.6,N
1650378855.1,286046998.2,N
1650378875.9,286047000.8,N
1650378895.7,286046998.1,N
1650378915.5,286047000.1,N
1650378935.4,286047000.6,N
1650378955.2,286047001.1,N
1650378975.1,286046999.9,N
1650378976.0,286046999.9,N
1650378995.8,286047001.4,N
1650379015.6,286047001.5,N
1650379035.5,286047001.2,N
1650379055.3,286047000.6,N
1650379075.1,286046998.2,N
1650379095.9,286046998.1,N
1650379115.7,286046998.3,N
1650379135.6,286046998.1,N
1650379155.4,286047001.1,N
1650379175.2,286046997.0,N
1650379195.1,286046998.8,N
1650379196.0,286046998.8,N
1650379215.8,286047001.2,N
1650379235.6,286046998.1,N
1650379255.5,286046998.2,N
1650379275.3,286046998.7,N
1650379295.2,286046998.9,N
1650379315.9,286046996.8,N
1650379335.7,286046998.4,N
1650379355.6,286046999.3,N
1650379375.4,286046996.9,N
1650379395.2,286046999.3,N
1650379415.1,286046998.4,N
1650379416.0,286046998.4,N
1650379435.8,286046999.3,N
1650379455.7,286046998.6,N
1650379475.5,286047000.5,N
1650379495.3,286047000.5,N
1650379515.2,286046998.1,N
1650379535.0,286046998.2,N
1650379535.9,286046998.2,N
1650379555.8,286047001.0,N
1650379575.6,286047000.8,N
1650379595.4,286046998.3,N
1650379615.3,286046998.9,N
1650379635.1,286046999.1,N
1650379655.8,286046998.8,N
1650379675.7,286046998.4,N
1650379695.5,286046996.5,Y
1650379715.4,286046998.1,P
1650379735.2,286046998.5,P
1650379755.0,286046998.5,P
1650379755.9,286046998.5,Y
1650379775.8,286046999.7,P
1650379795.6,286047002.2,P
1650379815.4,286047000.7,N
1650379835.3,286047000.9,N
1650379855.1,286046998.2,N
1650379875.9,286047000.4,N
1650379895.7,286046998.7,N
1650379915.5,286046996.9,N
1650379935.4,286046996.9,N
1650379955.2,286046999.6,N
1650379975.0,286046999.3,N
1650379976.0,286046999.3,N
1650379995.8,286046998.1,N
1650380015.6,286047000.9,N
1650380035.5,286047000.2,N
1650380055.3,286047002.3,N
1650380075.1,286046999.7,N
1650380095.9,286046999.8,N
1650380115.7,286047002.8,N
1650380135.5,286047002.4,N
1650380155.4,286046998.6,N
1650380175.2,286046998.4,N
1650380195.1,286046999.3,N
1650380196.0,286046999.3,N
1650380215.8,286046998.3,N
1650380235.6,286046996.7,N
1650380255.5,286046997.1,N
1650380275.3,286046997.4,N
1650380295.2,286046999.5,N
1650380315.9,286046996.6,N
1650380335.7,286046998.4,N
1650380355.6,286046998.7,N
1650380375.4,286046999.0,N
1650380395.2,286046999.5,N
